Location: Amon Carter Post Office
(32.8281°N, 97.0484°W)
Time: 14:53:58
(UTC+00:00)

SL-4 R/B - Visible Passes

Search period start: 03 July 2022 00:00
Search period end: 13 July 2022 00:00
Orbit: 426 x 654 km, 51.6° (Epoch: 02 July)

Date Brightness Start Highest point End Pass type
(mag) Time Alt. Az. Time Alt. Az. Time Alt. Az.
09 Jul 4.4 04:15:17 12° NNE 04:15:17 12° NNE 04:15:40 10° NNE visible
09 Jul 3.5 10:51:35 10° NNW 10:55:25 43° NE 10:59:31 10° ESE visible
10 Jul 2.8 02:22:01 10° S 02:24:32 19° SE 02:27:03 10° E visible
10 Jul 3.5 04:00:46 10° W 04:03:45 29° NW 04:06:49 10° NNE visible
10 Jul 5.4 09:05:54 10° NNE 09:06:40 10° NNE 09:07:28 10° NE visible
10 Jul 2.8 10:42:48 10° NW 10:46:44 57° NE 10:50:57 10° ESE visible
11 Jul 2.4 02:12:50 10° S 02:15:46 27° SE 02:18:43 10° ENE visible
11 Jul 4.1 03:52:25 10° W 03:55:08 22° NW 03:57:55 10° NNE visible
11 Jul 5.2 08:56:24 10° N 08:58:07 13° NNE 08:59:54 10° NE visible
11 Jul 2.2 10:34:04 10° NW 10:38:02 77° NE 10:42:19 10° SE visible
12 Jul 1.9 02:03:50 10° SSW 02:07:01 40° SE 02:10:13 10° ENE visible
12 Jul 4.6 03:44:11 10° WNW 03:46:33 17° NNW 03:48:56 10° NNE visible
12 Jul 5.0 08:47:15 10° N 08:49:33 15° NNE 08:51:56 10° ENE visible
12 Jul 1.9 10:25:23 10° NW 10:29:19 79° SW 10:33:34 10° SE visible
